国际通讯卫星 3-F7星 (INTELSAT 3-F7)

导读 | 豆包AI

INTELSAT 3-F7是国际通信卫星组织(ITSO)发射的第三代国际通信卫星,于1970年4月23日发射升空。该卫星属于地球同步轨道通信卫星,主要用于承担跨洲际的全球通信业务,提供电话、电报、电视广播等信息传输服务,推动了早期全球卫星通信网络的构建,在国际通信发展史上具有标志性意义,也为后续全球通信卫星技术发展积累了关键经验。

基本信息
目录编号:
4376
目录名称:
INTELSAT 3-F7
国际标识:
1970-032A
轨道中心:
EARTH
卫星名称:
国际通讯卫星 3-F7星
卫星全名:
国际通讯卫星 3-F7星 (INTELSAT 3-F7)
卫星状态:
在轨 (已飞行20435 天)
发射日期:
1970-04-23 UTC
国别 :
(ITSO)
星等 :
--
轨道信息
数据来源 国际轨道数据
星历时间: 2026-04-03T17:27:48+0800
18小时前
查看轨道信息
半长轴: 42141.392km
偏心率: 0.0004451
轨道倾角: 2.235°
近地点辐角 231.391°
升交点赤经 89.224°
平近点角 129.127°
近地点: 35744.497km
远地点: 35782.013km
周期: 1434.905分钟
每日圈数: 1.003551
详细信息
卫星平台:
Intelsat
平衡模式:
自旋稳定
覆盖范围:
全球
运营商:
国际卫星通信公司
运营商所在国:
美国
制造商(研发单位):
天合汽车集团
制造商所在国:
美国
使用方式:
暂无
卫星简介
从1965年4月至1984年3月,国际通信卫星组织发射了5代、6种不同性能的卫星共计35颗,除6颗卫星因运载火箭和远地点发动机故障而发射失败外,其余29颗卫星均被送到了预定的静止轨道位置。1984年8月前后,国际通信卫星组织利用部署在大西洋、太平洋、印度洋上空的15颗国际通信卫星,为遍布世界各地170多个国家或地区提供电话、电传、电报、电视和数据传输等电信业务;该卫星已退役。
2D轨道图
3D轨道图
轨道高度分析图
轨道倾角分析图
轨道综合分析图
查看轨道综合分析图